Tracking 28790 objects as of 18-Apr-2024
HD Live streaming from Space Station
objects crossing your sky now

GALAXY 3

Track GALAXY 3 now!
GALAXY 3 is classified as:


NORAD ID: 15308
Int'l Code: 1984-101A
Perigee: 35,887.4 km
Apogee: 35,941.3 km
Inclination: 14.5 °
Period: 1,442.3 minutes
Semi major axis: 42285 km
RCS: 3.7869 m2 (large)
Launch date: September 21, 1984
Source: United States (US)
Launch site: AIR FORCE EASTERN TEST RANGE (AFETR)
Your satellite tracking list
Your tracking list is empty




NASA's NSSDC Master Catalog

Two Line Element Set (TLE):
1 15308U 84101A   24108.33607470  .00000045  00000-0  00000-0 0  9995
2 15308  14.5381 351.0467 0006377  41.2171 131.0811  0.99843096 38583
Source of the keplerian elements: AFSPC